• In Hungary
  • List of Countries
  • For 7 days
  • Water Temperature
  • Satellite Maps
  • Weather Map
  • News
  • Weather Widgets
  • user-avatar
    Login

    Hourly Weather Hoyerswerda

    Today, 19 August, Sunday

    Time Temperature Precipitation Wind Pressure Humidity
    00:00 +19°C° 0 mm 0 mps 755 mmHg 77%
    01:00 +19°C° 0 mm 0 mps 755 mmHg 77%
    02:00 +18°C° 0 mm 0 mps 755 mmHg 78%
    03:00 +18°C° 0 mm 0 mps 755 mmHg 79%
    04:00 +18°C° 0 mm 0 mps 755 mmHg 80%
    05:00 +19°C° 0 mm 0 mps 755 mmHg 76%
    06:00 +20°C° 0 mm 0 mps 755 mmHg 72%
    07:00 +21°C° 0 mm 0 mps 755 mmHg 68%
    08:00 +23°C° 0 mm 0 mps 755 mmHg 61%
    09:00 +25°C° 0 mm 0 mps 755 mmHg 54%
    10:00 +29°C° 0 mm 1 mps 755 mmHg 48%
    11:00 +30°C° 0 mm 1 mps 755 mmHg 45%
    12:00 +31°C° 0 mm 1 mps 754 mmHg 42%
    13:00 +32°C° 0 mm 1 mps 754 mmHg 39%
    14:00 +32°C° 0 mm 1 mps 753 mmHg 40%
    15:00 +32°C° 0 mm 1 mps 753 mmHg 41%
    16:00 +31°C° 0 mm 2 mps 752 mmHg 42%
    17:00 +30°C° 0 mm 1 mps 752 mmHg 47%
    18:00 +29°C° 0 mm 1 mps 752 mmHg 52%
    19:00 +27°C° 0 mm 1 mps 752 mmHg 56%
    20:00 +26°C° 0.2 mm 1 mps 752 mmHg 59%
    21:00 +25°C° 0.2 mm 1 mps 752 mmHg 62%
    22:00 +24°C° 0.2 mm 1 mps 752 mmHg 64%
    23:00 +23°C° 0 mm 1 mps 752 mmHg 65%

    Tomorrow, 20 August, Monday

    Time Temperature Precipitation Wind Pressure Humidity
    00:00 +23°C° 0 mm 2 mps 752 mmHg 67%
    01:00 +21°C° 0 mm 2 mps 752 mmHg 68%
    02:00 +21°C° 0 mm 2 mps 752 mmHg 69%
    03:00 +20°C° 0 mm 2 mps 752 mmHg 70%
    04:00 +20°C° 0 mm 2 mps 751 mmHg 72%
    05:00 +20°C° 0 mm 2 mps 752 mmHg 70%
    06:00 +21°C° 0 mm 2 mps 752 mmHg 68%
    07:00 +21°C° 0 mm 2 mps 752 mmHg 66%
    08:00 +24°C° 0 mm 3 mps 752 mmHg 62%
    09:00 +25°C° 0 mm 3 mps 752 mmHg 57%
    10:00 +27°C° 0 mm 4 mps 752 mmHg 52%
    11:00 +27°C° 0 mm 4 mps 752 mmHg 54%
    12:00 +27°C° 0 mm 4 mps 752 mmHg 55%
    13:00 +27°C° 0 mm 4 mps 752 mmHg 56%
    14:00 +27°C° 0 mm 4 mps 752 mmHg 57%
    15:00 +27°C° 0 mm 4 mps 752 mmHg 58%
    16:00 +26°C° 0 mm 4 mps 752 mmHg 58%
    17:00 +26°C° 0 mm 3 mps 752 mmHg 62%
    18:00 +25°C° 0 mm 3 mps 752 mmHg 66%
    19:00 +24°C° 0 mm 2 mps 752 mmHg 70%
    20:00 +23°C° 0 mm 2 mps 752 mmHg 73%
    21:00 +21°C° 0 mm 2 mps 753 mmHg 76%
    22:00 +20°C° 0 mm 2 mps 753 mmHg 80%
    23:00 +20°C° 0 mm 2 mps 753 mmHg 81%

    Day after tomorrow, 21 August, Tuesday

    Time Temperature Precipitation Wind Pressure Humidity
    00:00 +20°C° 0 mm 2 mps 753 mmHg 82%
    01:00 +19°C° 0 mm 2 mps 753 mmHg 83%
    02:00 +19°C° 0 mm 2 mps 754 mmHg 84%
    03:00 +19°C° 0 mm 2 mps 754 mmHg 85%
    04:00 +18°C° 0 mm 2 mps 754 mmHg 85%
    05:00 +18°C° 0 mm 2 mps 754 mmHg 82%
    06:00 +20°C° 0 mm 1 mps 755 mmHg 79%
    07:00 +20°C° 0 mm 1 mps 755 mmHg 76%
    08:00 +21°C° 0 mm 1 mps 755 mmHg 71%
    09:00 +22°C° 0 mm 1 mps 755 mmHg 65%
    10:00 +23°C° 0 mm 1 mps 755 mmHg 59%
    11:00 +24°C° 0 mm 1 mps 755 mmHg 56%
    12:00 +25°C° 0 mm 2 mps 755 mmHg 53%
    13:00 +26°C° 0 mm 2 mps 755 mmHg 50%
    14:00 +26°C° 0 mm 1 mps 755 mmHg 48%
    15:00 +26°C° 0 mm 1 mps 755 mmHg 47%
    16:00 +27°C° 0 mm 1 mps 754 mmHg 45%
    17:00 +25°C° 0 mm 1 mps 754 mmHg 49%
    18:00 +24°C° 0 mm 1 mps 754 mmHg 52%
    19:00 +23°C° 0 mm 1 mps 754 mmHg 56%
    20:00 +22°C° 0 mm 1 mps 755 mmHg 57%
    21:00 +21°C° 0 mm 1 mps 755 mmHg 59%
    22:00 +20°C° 0 mm 1 mps 755 mmHg 60%
    23:00 +19°C° 0 mm 1 mps 755 mmHg 61%

    22 August, Wednesday

    Time Temperature Precipitation Wind Pressure Humidity
    00:00 +19°C° 0 mm 1 mps 755 mmHg 63%
    01:00 +18°C° 0 mm 1 mps 755 mmHg 65%
    02:00 +18°C° 0 mm 1 mps 755 mmHg 66%
    03:00 +18°C° 0 mm 1 mps 755 mmHg 68%
    04:00 +18°C° 0 mm 1 mps 755 mmHg 70%
    05:00 +19°C° 0 mm 1 mps 755 mmHg 69%
    06:00 +20°C° 0 mm 1 mps 755 mmHg 67%
    07:00 +21°C° 0 mm 1 mps 755 mmHg 66%
    08:00 +23°C° 0 mm 1 mps 754 mmHg 61%
    09:00 +25°C° 0 mm 2 mps 754 mmHg 56%
    10:00 +27°C° 0 mm 2 mps 754 mmHg 51%
    11:00 +28°C° 0 mm 2 mps 754 mmHg 49%
    12:00 +28°C° 0 mm 2 mps 754 mmHg 47%
    13:00 +29°C° 0 mm 2 mps 753 mmHg 45%
    14:00 +29°C° 0 mm 1 mps 753 mmHg 46%
    15:00 +29°C° 0 mm 1 mps 753 mmHg 47%
    16:00 +29°C° 0 mm 1 mps 752 mmHg 49%
    17:00 +28°C° 0 mm 1 mps 752 mmHg 53%
    18:00 +26°C° 0 mm 1 mps 752 mmHg 56%
    19:00 +25°C° 0 mm 1 mps 752 mmHg 60%
    20:00 +25°C° 0 mm 1 mps 752 mmHg 61%
    21:00 +24°C° 0 mm 1 mps 752 mmHg 62%
    22:00 +24°C° 0 mm 1 mps 752 mmHg 63%
    23:00 +23°C° 0 mm 1 mps 752 mmHg 65%

    23 August, Thursday

    Time Temperature Precipitation Wind Pressure Humidity
    00:00 +23°C° 0 mm 1 mps 752 mmHg 67%
    01:00 +22°C° 0 mm 1 mps 751 mmHg 69%
    02:00 +22°C° 0 mm 1 mps 751 mmHg 70%
    03:00 +22°C° 0 mm 1 mps 751 mmHg 72%
    04:00 +22°C° 0 mm 1 mps 751 mmHg 73%
    05:00 +22°C° 0 mm 1 mps 751 mmHg 71%
    06:00 +23°C° 0 mm 1 mps 751 mmHg 70%
    07:00 +24°C° 0 mm 1 mps 750 mmHg 68%
    08:00 +26°C° 0 mm 1 mps 750 mmHg 61%
    09:00 +28°C° 0 mm 1 mps 750 mmHg 55%
    10:00 +30°C° 0 mm 1 mps 750 mmHg 49%
    11:00 +30°C° 0.1 mm 1 mps 750 mmHg 47%
    12:00 +31°C° 0.1 mm 1 mps 749 mmHg 45%
    13:00 +31°C° 0.1 mm 1 mps 749 mmHg 43%
    14:00 +31°C° 0 mm 1 mps 748 mmHg 44%
    15:00 +31°C° 0 mm 1 mps 748 mmHg 44%
    16:00 +31°C° 0 mm 1 mps 748 mmHg 44%
    17:00 +30°C° 0 mm 1 mps 747 mmHg 48%
    18:00 +27°C° 0 mm 0 mps 747 mmHg 52%
    19:00 +25°C° 0 mm 0 mps 747 mmHg 56%
    20:00 +26°C° 0.2 mm 1 mps 747 mmHg 59%
    21:00 +26°C° 0.2 mm 1 mps 747 mmHg 63%
    22:00 +25°C° 0.2 mm 1 mps 746 mmHg 66%
    23:00 +24°C° 0.2 mm 1 mps 746 mmHg 70%

    24 August, Friday

    Time Temperature Precipitation Wind Pressure Humidity
    00:00 +23°C° 0.2 mm 2 mps 746 mmHg 73%
    01:00 +23°C° 0.2 mm 2 mps 746 mmHg 77%
    02:00 +21°C° 0.2 mm 2 mps 745 mmHg 78%
    03:00 +21°C° 0.2 mm 2 mps 745 mmHg 80%
    04:00 +21°C° 0.2 mm 2 mps 745 mmHg 82%
    05:00 +21°C° 0 mm 2 mps 745 mmHg 79%
    06:00 +23°C° 0 mm 2 mps 745 mmHg 76%
    07:00 +24°C° 0 mm 2 mps 745 mmHg 74%
    08:00 +26°C° 0 mm 2 mps 745 mmHg 66%
    09:00 +27°C° 0 mm 2 mps 745 mmHg 58%
    10:00 +29°C° 0 mm 2 mps 744 mmHg 50%
    11:00 +30°C° 0 mm 3 mps 744 mmHg 46%
    12:00 +31°C° 0 mm 3 mps 744 mmHg 42%
    13:00 +33°C° 0 mm 4 mps 744 mmHg 38%
    14:00 +32°C° 0.2 mm 4 mps 743 mmHg 43%
    15:00 +30°C° 0.2 mm 4 mps 743 mmHg 48%
    16:00 +29°C° 0.2 mm 4 mps 743 mmHg 53%
    17:00 +26°C° 1.5 mm 4 mps 744 mmHg 66%
    18:00 +22°C° 1.5 mm 4 mps 744 mmHg 78%
    19:00 +19°C° 1.5 mm 4 mps 744 mmHg 91%
    20:00 +19°C° 0.3 mm 4 mps 745 mmHg 91%
    21:00 +18°C° 0.3 mm 3 mps 745 mmHg 91%
    22:00 +17°C° 0.3 mm 3 mps 745 mmHg 90%
    23:00 +17°C° 0.1 mm 3 mps 746 mmHg 90%
    Show more